SCP
1 1 1 2 1 1 1 1 1 1 1 1 1 0 0 0 0 0 1 1 1 1 1 1 1 1 2 2 2 2 2 2 2 2 2 1 1 1 1 1 2 2 2
1 1 1 2 1 1 1 1 1 1 1 0 0 0 0 0 0 0 1 1 1 1 1 1 1 1 1 1 1 1 1 2 2 2 2 1 1 1 1 1 2 2 2
1 1 1 1 1 1 1 1 1 1 0 0 0 0 0 0 0 0 1 1 1 1 1 1 1 1 1 1 1 1 1 1 2 2 1 1 1 1 1 1 2 2 2
1 1 1 1 1 1 1 1 1 1 0 0 0 0 0 0 0 1 1 1 0 1 1 1 1 1 1 1 1 1 1 2 2 2 2 2 2 2 2 2 1 1 1
0 0 1 1 1 1 1 1 1 0 0 0 0 0 0 0 0 1 1 1 0 0 1 1 1 1 1 1 1 1 2 2 2 3 3 3 2 2 2 2 1 1 1
1 1 1 1 1 1 1 1 1 0 0 0 0 0 0 0 0 0 1 1 1 0 1 1 1 1 1 1 1 2 2 2 2 3 3 3 3 2 2 2 1 1 1
1 1 1 1 1 1 1 1 1 1 0 0 0 0 0 0 0 1 1 1 1 1 1 1 1 1 1 1 1 1 2 2 2 2 2 2 2 2 2 2 2 1 1
1 1 1 1 1 1 1 1 1 1 1 1 1 1 1 1 1 1 1 1 1 1 1 1 1 1 1 1 1 1 2 2 2 1 2 2 2 2 2 2 2 2 1
1 1 1 1 1 1 1 1 1 1 2 2 2 2 1 1 1 1 1 1 1 1 1 1 1 1 1 1 1 1 1 1 1 1 2 2 2 2 1 1 1 1 1
1 1 1 1 1 1 1 1 1 2 2 2 2 2 2 2 2 1 1 1 1 1 1 1 1 1 1 1 1 1 1 1 1 1 2 2 2 2 2 2 1 1 1
1 1 1 1 1 1 1 1 1 1 2 2 2 2 2 2 2 1 1 1 1 1 1 1 1 1 1 1 1 1 1 1 1 1 1 2 2 2 2 2 2 1 1
1 1 1 1 1 1 1 1 1 1 1 2 2 2 2 2 2 2 1 1 1 1 1 1 1 1 1 1 1 1 1 1 1 1 1 2 2 2 2 2 2 1 1
1 1 1 1 2 2 2 2 2 1 1 1 2 2 2 2 2 2 1 1 1 1 1 1 1 1 1 1 1 1 1 1 1 1 1 1 2 2 2 2 1 1 1
1 1 1 1 2 2 2 2 2 2 1 1 1 1 2 2 2 2 2 2 2 2 1 1 1 1 1 1 1 1 1 1 1 1 1 1 1 1 1 1 1 1 1
1 1 1 1 2 2 2 2 2 1 1 1 1 1 2 2 2 2 2 2 2 2 2 2 2 1 1 1 1 1 1 1 0 0 0 0 1 1 1 1 1 1 1
1 1 1 1 2 2 1 1 1 1 1 1 2 2 2 2 2 2 2 2 2 2 3 3 2 2 1 1 1 1 1 1 0 0 0 0 0 0 0 0 0 0 0
1 1 1 1 1 1 1 1 1 1 1 1 2 2 2 2 2 2 2 2 2 3 3 3 2 2 2 2 1 1 1 1 1 0 0 0 0 0 0 0 0 0 0
1 1 1 1 1 1 1 1 1 1 2 2 2 2 2 2 2 2 2 3 3 3 3 3 2 2 2 2 2 1 1 1 1 1 0 0 0 0 0 0 0 0 0
1 1 1 1 1 1 2 2 2 2 2 3 3 3 3 2 2 3 3 3 3 3 3 3 3 2 2 2 2 1 1 1 1 1 1 0 0 0 0 0 0 0 0
1 1 1 1 1 1 2 2 3 3 3 3 3 4 3 3 3 3 3 3 3 3 3 3 3 2 2 2 2 1 1 1 1 1 1 0 0 0 0 0 0 0 0
1 1 1 0 1 1 1 2 3 4 4 4 4 4 4 3 3 3 3 3 4 3 3 3 3 3 2 2 2 2 1 1 1 1 1 1 0 0 0 0 0 0 0
1 1 1 1 1 1 1 2 3 4 4 4 3 3 3 3 2 2 2 2 3 3 4 4 4 3 2 2 2 2 2 1 1 1 1 1 1 0 0 0 0 0 0
1 1 1 1 1 1 1 2 3 4 4 3 2 2 2 2 2 2 2 2 2 3 4 5 4 3 2 2 1 1 2 1 1 1 1 1 1 0 0 0 0 0 0
2 2 2 1 1 1 1 1 2 3 3 2 2 2 2 2 2 2 2 2 3 3 3 3 4 3 2 1 1 1 1 1 1 1 1 1 1 1 0 0 0 0 0
2 2 2 2 2 2 2 1 2 2 3 2 2 2 1 1 1 1 2 2 3 3 3 2 2 2 1 1 0 1 1 1 1 1 1 1 1 1 1 1 0 0 0
3 2 2 2 2 2 2 2 2 2 3 2 2 1 1 1 1 1 1 2 3 3 3 2 1 1 1 0 0 0 1 1 1 1 1 1 2 1 1 1 1 0 0
Wind_Speed
0 1 1 1 1 1 0 1 1 1 1 1 1 2 2 2 3 3 2 5 6 7 7 8 7 8 8 7 7 8 9 9 9 10 10 10 9 9 9 9 9 9 8
1 1 1 1 1 1 0 0 1 1 1 1 1 2 2 2 2 2 2 3 5 6 7 7 7 7 8 8 8 8 8 9 9 10 10 10 10 10 10 10 9 9 9
1 1 0 1 1 1 0 0 0 0 1 1 1 1 1 1 1 1 1 1 2 4 5 6 7 8 8 8 8 8 8 9 9 10 11 10 10 9 9 9 9 9 8
2 1 1 1 1 0 0 0 0 1 1 1 1 1 1 0 0 0 0 1 1 2 3 5 6 7 8 8 8 9 9 9 9 9 10 11 11 10 9 8 9 9 9
1 1 1 1 0 0 0 0 0 0 0 1 1 1 1 1 1 1 1 1 1 1 2 3 5 6 6 6 7 8 9 9 9 9 9 10 10 10 9 9 9 8 8
1 1 1 1 0 0 0 0 0 0 0 1 1 1 1 1 0 1 1 1 1 1 2 2 2 3 5 5 5 6 7 7 8 8 9 8 8 9 8 8 9 9 8
1 1 1 0 0 0 1 1 0 0 1 0 1 1 2 1 0 1 1 1 1 1 1 2 2 2 2 4 4 5 5 6 6 8 8 8 8 8 8 8 8 9 8
1 1 1 1 0 0 0 0 1 1 0 1 1 1 2 3 2 1 1 1 1 1 2 2 2 2 2 2 3 4 5 6 6 6 7 8 7 7 7 8 7 7 8
1 1 1 1 1 1 1 1 1 2 1 0 1 2 1 1 2 2 1 1 1 1 2 2 2 2 3 2 3 3 5 5 5 6 6 7 7 6 7 7 7 7 7
0 0 1 1 1 1 1 2 1 1 2 1 1 1 2 2 1 2 2 1 2 2 3 3 3 3 3 3 3 4 4 5 5 6 5 5 6 6 7 7 7 7 7
0 0 0 0 0 1 1 1 1 1 2 2 2 1 1 1 2 2 3 2 2 2 3 3 3 3 3 3 3 4 4 5 5 5 5 5 4 5 7 8 8 7 7
1 1 0 0 0 1 1 2 2 2 2 2 2 2 2 2 2 3 3 3 3 3 3 3 3 3 3 3 5 5 4 4 4 4 4 4 4 4 5 6 7 7 7
1 1 1 1 1 1 1 1 1 1 1 2 2 2 2 2 2 2 2 2 3 2 2 2 3 3 3 3 4 5 5 4 3 3 3 3 3 4 4 4 6 6 6
2 2 1 1 1 1 1 1 0 1 1 1 1 1 1 2 2 2 2 2 2 2 2 3 2 3 3 3 4 5 4 4 4 3 3 3 3 3 3 3 4 5 5
1 1 1 1 1 1 1 0 0 1 0 1 1 1 1 2 1 2 2 2 2 3 4 3 2 2 3 3 4 3 4 4 4 3 3 3 3 3 2 2 2 3 4
1 1 1 1 1 1 1 0 0 1 0 1 1 1 1 2 1 1 1 1 2 3 4 3 3 3 3 3 3 3 3 4 5 4 3 3 3 2 2 2 3 3 3
2 1 1 1 1 1 1 0 1 1 1 1 1 1 2 2 1 1 1 2 2 2 4 3 2 2 2 3 2 2 2 2 3 4 4 4 3 3 3 3 3 3 2
1 1 1 1 1 1 1 1 2 2 1 2 2 2 3 2 2 2 2 2 2 2 3 4 3 2 2 2 2 2 2 2 2 4 4 4 3 3 3 3 2 2 2
0 0 1 1 1 2 1 2 2 2 2 2 2 2 3 2 3 2 2 2 2 2 2 3 3 2 2 1 1 2 2 2 2 2 3 2 2 2 2 2 2 2 2
1 1 1 1 2 2 2 2 1 2 2 2 3 3 3 3 3 3 3 3 2 2 2 2 2 2 2 1 1 1 1 2 2 2 1 1 1 2 2 2 3 3 2
1 1 1 1 2 2 2 2 2 2 2 2 3 3 3 4 4 3 3 2 2 1 1 2 2 2 2 2 2 2 2 2 2 1 1 1 1 1 2 3 3 2 2
1 1 1 2 2 2 3 3 2 2 2 2 3 3 4 3 4 4 4 4 3 3 3 2 2 3 3 3 3 2 2 2 2 1 2 2 1 2 2 2 2 3 2
1 1 1 2 3 3 3 3 3 2 2 2 3 3 3 3 3 3 3 3 4 4 4 4 4 4 4 3 3 3 3 3 2 1 2 2 2 2 2 2 2 3 3
1 1 1 2 2 3 3 3 3 2 2 2 3 3 3 3 3 3 3 3 3 3 4 3 4 4 4 3 3 3 3 2 1 1 2 2 1 2 2 1 2 3 3
1 1 1 1 2 3 4 3 2 1 1 3 3 3 3 3 4 3 2 3 3 4 3 3 3 3 4 3 2 2 1 1 1 1 1 1 1 1 1 1 1 2 3
1 1 1 2 2 3 4 3 2 1 2 2 3 3 4 4 4 3 2 3 4 4 3 3 2 2 2 2 2 3 3 2 1 2 2 1 1 1 1 1 0 0 1
Wind_Direction
265 300 311 322 317 327 314 316 319 316 307 293 269 261 264 261 250 238 246 244 238 236 238 230 224 225 228 226 225 224 220 220 220 219 220 222 224 224 224 226 228 228 230
206 231 284 317 310 295 248 259 284 286 294 286 285 269 261 271 262 241 239 249 247 241 240 235 232 234 234 232 229 227 225 226 226 224 222 223 225 226 229 231 232 232 233
198 194 205 294 299 305 320 64 323 341 321 318 305 296 269 263 263 268 252 241 250 252 247 239 240 240 238 237 234 232 230 230 229 230 228 226 226 228 230 232 234 235 234
187 174 178 275 293 314 128 169 24 8 346 328 303 310 314 300 271 228 265 258 247 258 256 251 251 247 244 240 239 238 235 233 231 233 234 228 226 227 227 234 238 238 239
183 170 197 264 289 106 233 246 94 144 310 317 300 332 337 317 291 255 233 231 227 241 249 259 257 258 251 244 243 243 239 237 234 233 233 230 227 224 224 230 236 238 238
183 174 187 246 174 88 348 332 82 68 269 307 335 359 337 310 305 277 248 234 221 230 234 242 252 265 254 248 248 247 245 238 232 228 227 229 229 226 226 230 232 234 236
180 165 206 158 122 177 240 232 160 78 15 38 57 354 341 326 312 270 265 251 256 256 243 238 242 248 259 256 252 246 247 247 241 236 232 230 233 233 234 237 236 232 234
197 180 172 190 197 213 279 237 148 150 263 98 118 46 346 344 347 330 285 247 265 268 258 250 244 241 255 262 264 258 253 254 252 249 237 231 235 237 236 241 240 234 236
202 187 179 186 197 195 231 241 196 184 212 230 147 151 166 257 311 312 284 271 271 266 267 261 250 251 255 261 268 269 268 269 265 264 254 239 235 241 239 238 240 240 241
255 195 182 190 209 211 231 249 220 203 188 226 218 202 204 187 204 305 315 294 278 269 269 265 258 252 251 255 260 267 268 268 269 269 267 259 244 241 241 239 241 243 243
327 309 147 129 249 239 244 257 245 215 204 210 210 204 216 219 208 220 277 297 293 268 259 255 254 257 256 257 253 257 261 266 266 266 269 273 270 252 243 241 241 245 246
334 333 108 152 245 253 254 250 240 225 223 218 219 212 205 204 211 210 238 265 278 279 264 253 249 253 254 255 261 266 262 265 259 258 262 270 276 272 253 243 240 240 245
287 281 264 250 253 259 259 253 255 257 229 220 221 225 225 232 219 208 217 248 268 280 275 257 243 245 250 252 261 261 259 257 259 255 254 258 264 269 260 254 245 241 244
246 252 240 250 260 270 275 243 241 264 247 239 248 235 239 246 227 214 210 213 266 282 271 263 254 242 253 251 262 258 252 249 250 252 253 254 254 259 254 256 253 244 245
252 256 254 255 268 280 282 261 244 268 266 268 262 262 265 271 256 244 230 212 215 264 274 260 256 261 259 251 262 251 251 250 245 247 253 252 248 246 243 248 248 239 233
250 260 277 274 289 303 321 17 292 281 232 260 243 257 280 276 283 266 239 236 225 231 259 259 251 276 277 267 264 252 250 259 247 242 240 241 242 234 236 240 236 238 227
207 223 257 273 268 275 288 306 282 275 263 276 276 260 276 273 265 269 252 242 240 234 254 274 265 282 273 277 293 270 254 246 255 248 234 230 235 233 235 241 237 236 240
210 209 233 266 271 268 251 233 263 282 269 269 270 265 275 275 269 266 254 251 249 241 240 265 279 281 272 276 280 269 269 257 254 250 233 225 228 229 231 233 222 220 228
202 259 242 256 263 259 253 251 250 268 265 262 261 258 268 266 272 268 258 255 259 257 245 249 268 274 275 293 304 286 285 283 256 242 228 227 224 203 204 214 203 193 214
201 232 248 250 254 258 261 264 262 270 268 266 264 263 266 254 251 255 257 255 253 259 256 254 265 279 280 293 271 274 282 277 271 257 263 246 223 198 197 202 201 187 191
233 229 243 269 270 254 257 270 270 268 270 275 282 281 273 268 265 262 267 258 243 247 256 262 268 277 270 267 258 253 252 270 264 255 255 250 231 221 221 221 210 197 195
231 211 247 265 273 276 276 268 263 258 264 268 281 293 292 288 288 284 279 271 250 234 238 241 255 259 264 259 256 247 238 239 251 228 225 241 216 234 237 223 212 199 195
216 234 265 274 278 279 281 281 271 249 252 267 277 287 296 310 317 299 298 298 281 267 240 233 237 251 255 249 238 236 233 236 244 249 214 234 227 243 247 232 198 195 197
209 237 261 279 288 298 309 299 300 277 265 274 273 266 270 285 285 287 291 299 293 285 272 251 239 250 254 240 223 228 222 225 259 237 207 228 232 249 256 247 215 204 201
257 266 275 278 289 301 309 301 312 286 286 292 287 280 272 277 287 289 288 285 293 295 297 301 288 280 277 255 212 185 178 187 246 247 211 224 228 259 260 260 246 226 215
245 294 323 308 290 297 307 304 311 278 290 298 301 296 285 284 289 284 265 260 271 281 296 311 317 319 303 278 216 208 199 202 216 232 201 202 205 208 255 248 282 270 233